Time,TemperatureF,DewpointF,PressureIn,WindDirection,WindDirectionDegrees,WindSpeedMPH,WindSpeedGustMPH,Humidity,HourlyPrecipIn,Conditions,Clouds,dailyrainin,SolarRadiationWatts/m^2,SoftwareType,DateUTC
2013-03-11 00:14:00,37.1,31.0,30.38,NW,307,3.0,5.0,79,0.00,,,0.00,0,weatherlink.com 1.10,2013-03-11 06:14:00,
2013-03-11 00:29:00,36.2,32.0,30.38,North,4,2.0,4.0,83,0.00,,,0.00,0,weatherlink.com 1.10,2013-03-11 06:29:00,
2013-03-11 00:44:00,35.6,32.0,30.37,WNW,287,0.0,5.0,85,0.00,,,0.00,0,weatherlink.com 1.10,2013-03-11 06:44:00,
2013-03-11 00:59:00,35.3,32.0,30.37,WNW,287,0.0,2.0,86,0.00,,,0.00,0,weatherlink.com 1.10,2013-03-11 06:59:00,
2013-03-11 01:14:00,35.2,31.0,30.36,WNW,287,2.0,2.0,86,0.00,,,0.00,0,weatherlink.com 1.10,2013-03-11 07:14:00,
2013-03-11 01:29:00,35.6,32.0,30.36,WSW,237,4.0,4.0,85,0.00,,,0.00,0,weatherlink.com 1.10,2013-03-11 07:29:00,
2013-03-11 01:44:00,35.1,31.0,30.36,SW,227,1.0,3.0,86,0.00,,,0.00,0,weatherlink.com 1.10,2013-03-11 07:44:00,
2013-03-11 01:59:00,34.7,31.0,30.35,SW,219,0.0,3.0,87,0.00,,,0.00,0,weatherlink.com 1.10,2013-03-11 07:59:00,
2013-03-11 02:14:00,34.6,31.0,30.35,SW,218,0.0,3.0,88,0.00,,,0.00,0,weatherlink.com 1.10,2013-03-11 08:14:00,
2013-03-11 02:29:00,34.7,32.0,30.34,ESE,109,7.0,9.0,88,0.00,,,0.00,0,weatherlink.com 1.10,2013-03-11 08:29:00,
2013-03-11 02:44:00,35.0,31.0,30.34,East,87,1.0,4.0,86,0.00,,,0.00,0,weatherlink.com 1.10,2013-03-11 08:44:00,
2013-03-11 02:59:00,35.3,31.0,30.34,ENE,58,0.0,3.0,85,0.00,,,0.00,0,weatherlink.com 1.10,2013-03-11 08:59:00,
2013-03-11 03:14:00,35.3,31.0,30.34,SE,129,3.0,5.0,84,0.00,,,0.00,0,weatherlink.com 1.10,2013-03-11 09:14:00,
2013-03-11 03:29:00,35.3,31.0,30.34,SE,129,1.0,3.0,84,0.00,,,0.00,0,weatherlink.com 1.10,2013-03-11 09:29:00,
2013-03-11 03:44:00,35.1,31.0,30.34,ESE,123,3.0,3.0,85,0.00,,,0.00,0,weatherlink.com 1.10,2013-03-11 09:44:00,
2013-03-11 03:59:00,35.3,31.0,30.34,ESE,114,1.0,4.0,84,0.00,,,0.00,0,weatherlink.com 1.10,2013-03-11 09:59:00,
2013-03-11 04:14:00,35.6,31.0,30.34,ESE,112,2.0,3.0,83,0.00,,,0.00,0,weatherlink.com 1.10,2013-03-11 10:14:00,
2013-03-11 04:29:00,35.8,31.0,30.33,ESE,107,3.0,4.0,82,0.00,,,0.00,0,weatherlink.com 1.10,2013-03-11 10:29:00,
2013-03-11 04:44:00,35.8,31.0,30.33,ENE,61,2.0,5.0,81,0.00,,,0.00,0,weatherlink.com 1.10,2013-03-11 10:44:00,
2013-03-11 04:59:00,34.7,31.0,30.32,NNE,25,2.0,4.0,85,0.00,,,0.00,0,weatherlink.com 1.10,2013-03-11 10:59:00,
2013-03-11 05:15:00,34.4,30.0,30.32,East,88,0.0,4.0,84,0.00,,,0.00,0,weatherlink.com 1.10,2013-03-11 11:15:00,
2013-03-11 05:30:00,33.4,30.0,30.32,ENE,68,4.0,4.0,86,0.00,,,0.00,0,weatherlink.com 1.10,2013-03-11 11:30:00,
2013-03-11 05:45:00,33.0,29.0,30.32,NNE,33,1.0,4.0,86,0.00,,,0.00,0,weatherlink.com 1.10,2013-03-11 11:45:00,
2013-03-11 06:00:00,32.9,29.0,30.32,East,86,0.0,3.0,86,0.00,,,0.00,0,weatherlink.com 1.10,2013-03-11 12:00:00,
2013-03-11 06:15:00,32.8,30.0,30.32,ENE,71,2.0,8.0,88,0.00,,,0.00,0,weatherlink.com 1.10,2013-03-11 12:15:00,
2013-03-11 06:30:00,33.1,29.0,30.32,ENE,70,1.0,7.0,86,0.00,,,0.00,0,weatherlink.com 1.10,2013-03-11 12:30:00,
2013-03-11 06:45:00,32.9,28.0,30.32,East,90,2.0,7.0,83,0.00,,,0.00,0,weatherlink.com 1.10,2013-03-11 12:45:00,
2013-03-11 07:00:00,34.2,29.0,30.32,ESE,102,2.0,8.0,81,0.00,,,0.00,0,weatherlink.com 1.10,2013-03-11 13:00:00,
2013-03-11 07:15:00,33.4,28.0,30.32,ENE,64,2.0,7.0,80,0.00,,,0.00,0,weatherlink.com 1.10,2013-03-11 13:15:00,
2013-03-11 07:30:00,33.5,28.0,30.32,East,82,6.0,6.0,81,0.00,,,0.00,0,weatherlink.com 1.10,2013-03-11 13:30:00,
2013-03-11 07:45:00,35.9,28.0,30.32,East,98,0.0,9.0,73,0.00,,,0.00,0,weatherlink.com 1.10,2013-03-11 13:45:00,
2013-03-11 08:00:00,36.9,28.0,30.31,ESE,103,3.0,11.0,69,0.00,,,0.00,5,weatherlink.com 1.10,2013-03-11 14:00:00,
2013-03-11 08:15:00,37.9,28.0,30.31,ESE,104,10.0,13.0,67,0.00,,,0.00,9,weatherlink.com 1.10,2013-03-11 14:15:00,
2013-03-11 08:30:00,37.9,27.0,30.32,East,100,7.0,11.0,64,0.00,,,0.00,21,weatherlink.com 1.10,2013-03-11 14:30:00,
2013-03-11 08:45:00,38.8,25.0,30.32,ESE,107,3.0,9.0,59,0.00,,,0.00,40,weatherlink.com 1.10,2013-03-11 14:45:00,
2013-03-11 09:00:00,39.3,24.0,30.33,East,83,3.0,7.0,54,0.00,,,0.00,56,weatherlink.com 1.10,2013-03-11 15:00:00,
2013-03-11 09:15:00,40.0,25.0,30.33,NE,43,5.0,11.0,56,0.00,,,0.00,83,weatherlink.com 1.10,2013-03-11 15:15:00,
2013-03-11 09:30:00,40.5,25.0,30.34,NNW,344,5.0,14.0,55,0.00,,,0.00,114,weatherlink.com 1.10,2013-03-11 15:30:00,
2013-03-11 09:45:00,40.9,25.0,30.34,NNW,328,12.0,18.0,53,0.00,,,0.00,139,weatherlink.com 1.10,2013-03-11 15:45:00,
2013-03-11 10:00:00,41.2,24.0,30.34,NW,314,15.0,18.0,50,0.00,,,0.00,160,weatherlink.com 1.10,2013-03-11 16:00:00,
2013-03-11 10:15:00,41.6,22.0,30.34,NNW,327,7.0,19.0,46,0.00,,,0.00,179,weatherlink.com 1.10,2013-03-11 16:15:00,
2013-03-11 10:30:00,41.8,23.0,30.35,NNW,328,11.0,21.0,47,0.00,,,0.00,202,weatherlink.com 1.10,2013-03-11 16:30:00,
2013-03-11 10:45:00,41.8,23.0,30.35,NNW,332,13.0,22.0,47,0.00,,,0.00,229,weatherlink.com 1.10,2013-03-11 16:45:00,
2013-03-11 11:00:00,42.0,22.0,30.35,NNW,331,10.0,15.0,46,0.00,,,0.00,274,weatherlink.com 1.10,2013-03-11 17:00:00,
2013-03-11 11:15:00,42.3,22.0,30.35,NNW,333,20.0,20.0,45,0.00,,,0.00,353,weatherlink.com 1.10,2013-03-11 17:15:00,
2013-03-11 11:30:00,43.0,23.0,30.35,NW,304,12.0,20.0,45,0.00,,,0.00,320,weatherlink.com 1.10,2013-03-11 17:30:00,
2013-03-11 11:45:00,43.3,21.0,30.34,NW,324,13.0,20.0,42,0.00,,,0.00,336,weatherlink.com 1.10,2013-03-11 17:45:00,
2013-03-11 12:00:00,43.5,22.0,30.35,NW,314,14.0,21.0,43,0.00,,,0.00,408,weatherlink.com 1.10,2013-03-11 18:00:00,
2013-03-11 12:16:00,44.4,19.0,30.35,WNW,291,19.0,22.0,36,0.00,,,0.00,554,weatherlink.com 1.10,2013-03-11 18:16:00,
2013-03-11 12:31:00,44.7,19.0,30.34,NNW,339,16.0,21.0,36,0.00,,,0.00,499,weatherlink.com 1.10,2013-03-11 18:31:00,
2013-03-11 12:46:00,45.1,17.0,30.34,NW,308,13.0,23.0,33,0.00,,,0.00,577,weatherlink.com 1.10,2013-03-11 18:46:00,
2013-03-11 13:16:00,44.8,16.0,30.34,WNW,292,8.0,25.0,31,0.00,,,0.00,531,weatherlink.com 1.10,2013-03-11 19:16:00,
2013-03-11 13:31:00,45.9,20.0,30.34,West,275,15.0,24.0,36,0.00,,,0.00,717,weatherlink.com 1.10,2013-03-11 19:31:00,
2013-03-11 14:16:00,46.7,18.0,30.32,NNW,327,11.0,16.0,32,0.00,,,0.00,745,weatherlink.com 1.10,2013-03-11 20:16:00,
2013-03-11 15:31:00,48.6,18.0,30.31,NW,311,19.0,26.0,30,0.00,,,0.00,584,weatherlink.com 1.10,2013-03-11 21:31:00,
2013-03-11 15:46:00,47.9,15.0,30.31,WSW,250,14.0,23.0,27,0.00,,,0.00,603,weatherlink.com 1.10,2013-03-11 21:46:00,
2013-03-11 16:01:00,47.8,14.0,30.31,West,275,24.0,26.0,26,0.00,,,0.00,603,weatherlink.com 1.10,2013-03-11 22:01:00,
2013-03-11 16:16:00,48.0,15.0,30.31,West,268,21.0,25.0,27,0.00,,,0.00,559,weatherlink.com 1.10,2013-03-11 22:16:00,
2013-03-11 16:31:00,47.6,15.0,30.31,West,266,19.0,23.0,27,0.00,,,0.00,531,weatherlink.com 1.10,2013-03-11 22:31:00,
2013-03-11 16:46:00,47.8,14.0,30.32,West,277,18.0,25.0,26,0.00,,,0.00,489,weatherlink.com 1.10,2013-03-11 22:46:00,
2013-03-11 17:16:00,47.2,15.0,30.32,WNW,289,18.0,25.0,27,0.00,,,0.00,413,weatherlink.com 1.10,2013-03-11 23:16:00,
2013-03-11 17:31:00,47.1,13.0,30.32,WNW,285,16.0,25.0,25,0.00,,,0.00,376,weatherlink.com 1.10,2013-03-11 23:31:00,
2013-03-11 17:46:00,47.3,14.0,30.32,WNW,289,12.0,23.0,26,0.00,,,0.00,327,weatherlink.com 1.10,2013-03-11 23:46:00,
2013-03-11 18:01:00,47.2,13.0,30.31,WNW,287,11.0,21.0,25,0.00,,,0.00,283,weatherlink.com 1.10,2013-03-12 00:01:00,
2013-03-11 18:16:00,46.7,13.0,30.31,WNW,296,13.0,22.0,26,0.00,,,0.00,234,weatherlink.com 1.10,2013-03-12 00:16:00,
2013-03-11 18:31:00,46.7,14.0,30.32,WNW,285,9.0,16.0,27,0.00,,,0.00,176,weatherlink.com 1.10,2013-03-12 00:31:00,
2013-03-11 18:46:00,46.1,14.0,30.32,NW,317,13.0,15.0,28,0.00,,,0.00,120,weatherlink.com 1.10,2013-03-12 00:46:00,
2013-03-11 19:01:00,44.3,15.0,30.33,WNW,301,8.0,16.0,30,0.00,,,0.00,23,weatherlink.com 1.10,2013-03-12 01:01:00,
2013-03-11 19:16:00,43.4,16.0,30.32,NW,310,9.0,14.0,33,0.00,,,0.00,16,weatherlink.com 1.10,2013-03-12 01:16:00,
2013-03-11 19:31:00,43.0,16.0,30.33,NNW,332,4.0,9.0,34,0.00,,,0.00,7,weatherlink.com 1.10,2013-03-12 01:31:00,
2013-03-11 19:46:00,41.8,16.0,30.33,NW,324,6.0,11.0,35,0.00,,,0.00,0,weatherlink.com 1.10,2013-03-12 01:46:00,
2013-03-11 20:01:00,41.5,16.0,30.33,WNW,300,1.0,8.0,36,0.00,,,0.00,0,weatherlink.com 1.10,2013-03-12 02:01:00,
2013-03-11 20:16:00,39.5,17.0,30.34,NE,38,6.0,7.0,40,0.00,,,0.00,0,weatherlink.com 1.10,2013-03-12 02:16:00,
2013-03-11 20:31:00,39.9,17.0,30.34,NE,43,9.0,12.0,39,0.00,,,0.00,0,weatherlink.com 1.10,2013-03-12 02:31:00,
2013-03-11 20:46:00,38.1,17.0,30.35,NE,38,10.0,10.0,43,0.00,,,0.00,0,weatherlink.com 1.10,2013-03-12 02:46:00,
2013-03-11 21:01:00,37.7,17.0,30.35,NNE,31,8.0,9.0,44,0.00,,,0.00,0,weatherlink.com 1.10,2013-03-12 03:01:00,
2013-03-11 21:16:00,39.2,17.0,30.35,North,350,9.0,11.0,40,0.00,,,0.00,0,weatherlink.com 1.10,2013-03-12 03:16:00,
2013-03-11 21:46:00,38.3,18.0,30.36,North,6,5.0,6.0,44,0.00,,,0.00,0,weatherlink.com 1.10,2013-03-12 03:46:00,
2013-03-11 22:01:00,37.1,17.0,30.36,NE,38,4.0,5.0,45,0.00,,,0.00,0,weatherlink.com 1.10,2013-03-12 04:01:00,
2013-03-11 22:16:00,36.9,18.0,30.37,North,9,5.0,8.0,47,0.00,,,0.00,0,weatherlink.com 1.10,2013-03-12 04:16:00,
2013-03-11 22:31:00,37.1,18.0,30.37,North,359,4.0,8.0,47,0.00,,,0.00,0,weatherlink.com 1.10,2013-03-12 04:31:00,
2013-03-11 22:46:00,34.9,18.0,30.37,North,352,4.0,4.0,51,0.00,,,0.00,0,weatherlink.com 1.10,2013-03-12 04:46:00,
2013-03-11 23:16:00,35.5,19.0,30.37,North,6,0.0,6.0,51,0.00,,,0.00,0,weatherlink.com 1.10,2013-03-12 05:16:00,
2013-03-11 23:31:00,34.8,19.0,30.37,NNE,22,1.0,4.0,52,0.00,,,0.00,0,weatherlink.com 1.10,2013-03-12 05:31:00,
2013-03-11 23:46:00,33.1,19.0,30.37,NE,43,6.0,6.0,56,0.00,,,0.00,0,weatherlink.com 1.10,2013-03-12 05:46:00,